Regional Weather Roundup
Issued by NWS State College, PA

Home | Current Version | Previous Version | Graphics & Text | Print | Product List | Glossary On
Versions: 1 2 3 4 5 6 7 8 9 10 11 12 13 14 15 16 17 18 19 20 21 22 23 24 25 26 27 28 29 30 31 32 33 34 35 36 37 38 39 40 41 42 43 44 45 46 47 48 49 50
000
ASUS41 KCTP 210310
RWRCTP

REGIONAL WEATHER ROUNDUP
NATIONAL WEATHER SERVICE STATE COLLEGE PA
1000 PM EST SAT DEC 20 2014

Note: "fair" indicates few or no clouds below 12,000 feet with no
significant weather and/or obstructions to visibility.

* = STATION THAT DOES NOT REPORT PRECIPITATION /E.G. RAIN...SNOW...ETC/
    THUNDER OR FOG.

PAZ002>004-007>009-013>016-020>023-029>032-210400-
WESTERN PENNSYLVANIA

CITY           SKY/WX    TMP DP  RH WIND       PRES   REMARKS
ERIE           CLOUDY    30  21  69 S5        30.29R
MEADVILLE      CLOUDY    27  21  78 NE3       30.24S
FRANKLIN*      CLOUDY    27  19  74 CALM      30.26R
NEW CASTLE       N/A     29  24  81 CALM      30.29R
BEAVER COUNTY  NOT AVBL
BUTLER*        PTCLDY    25  21  86 CALM      30.27S
PITTSBURGH INT CLOUDY    28  20  71 CALM      30.26R
PITTSBURGH     CLOUDY    28  19  69 N3        30.24S
INDIANA*       CLOUDY    27  23  86 CALM      30.27F
LATROBE        NOT AVBL
WASHINGTON CO* NOT AVBL
$$

PAZ004>006-010>012-017>019-024>028-033>037-041-042-045-046-049>053-210400-
CENTRAL PENNSYLVANIA

CITY           SKY/WX    TMP DP  RH WIND       PRES   REMARKS
BRADFORD       CLOUDY    23  19  85 W3        30.19S
DUBOIS         CLOUDY    25  20  81 CALM      30.21R
CLEARFIELD     CLOUDY    26  19  74 W3        30.24R
JOHNSTOWN      CLOUDY    23  18  81 N3        30.17S
ALTOONA        MOCLDY    26  22  84 NE5       30.23S
STATE COLLEGE  CLOUDY    28  21  75 CALM      30.25S
WILLIAMSPORT   CLOUDY    31  21  66 W3        30.28R
SELINSGROVE    CLOUDY    32  22  66 CALM      30.29R
FT INDIANTOWN  CLOUDY    27  21  78 SW3       30.30R
CAPITAL CITY   PTCLDY    27  21  78 W5        30.31R
HARRISBURG     MOCLDY    27  22  81 NW5       30.30R
YORK           CLOUDY    27  23  85 CALM      30.29R
$$

PAZ038>040-043-044-047-048-054-055-060>062-067>071-210400-
EASTERN PENNSYLVANIA

CITY           SKY/WX    TMP DP  RH WIND       PRES   REMARKS
SCRANTON       CLOUDY    30  19  63 N5        30.23F
MOUNT POCONO   CLOUDY    24  18  77 NE6       30.17S
ALLENTOWN      CLOUDY    32  20  61 E5        30.28S
QUAKERTOWN*    CLOUDY    32  25  74 CALM      30.27F
READING        CLOUDY    32  21  64 NW3       30.28R
LANCASTER      MOCLDY    28  21  75 W3        30.29R
COATESVILLE    PTCLDY    28  25  86 CALM      30.27R
POTTSTOWN      CLOUDY    31  22  69 NW3       30.29S
BLUE BELL      CLOUDY    32  28  86 CALM      30.27F
DOYLESTOWN     CLOUDY    30  22  72 CALM      30.27F
WILLOW GROVE   NOT AVBL
NORTH PHILA    CLOUDY    34  20  56 NE6       30.30F
PHILADELPHIA   CLOUDY    34  22  61 SE5       30.31S
$$


USA.gov is the U.S. government's official web portal to all federal, state and local government web resources and services.